GFSSW_250_spd_057.txt.gz
Wind_Speed
57 34 19 27 42 57 69 72 73 73 72 72 71 70 70 71 73 75 76 77 76 77 77 79 82 84 89 92 91 93 96 90 93 91 92 91 92 87 88 87 86 85 85 80 80
62 58 36 17 21 36 53 65 71 72 72 72 73 74 73 73 72 72 73 74 75 76 77 78 80 82 84 85 87 90 92 92 96 93 97 97 99 91 91 89 92 90 90 86 87
61 62 60 38 17 17 32 49 62 70 70 73 72 73 75 76 76 73 73 74 74 76 76 77 79 80 80 82 85 87 86 91 95 98 100 99 98 95 93 88 97 99 94 89 87
60 60 61 60 42 19 14 28 45 58 68 70 71 73 73 75 76 79 77 76 75 76 77 77 78 78 79 80 82 83 85 89 93 98 99 97 100 101 98 99 96 99 98 95 92
61 60 59 59 60 47 24 12 23 39 53 64 70 71 72 75 72 77 77 78 79 79 79 78 78 78 78 79 80 80 87 88 88 93 96 101 104 103 99 100 107 99 103 100 99
69 63 59 57 57 57 51 31 13 19 33 48 59 67 72 72 74 75 75 76 78 79 80 81 81 81 82 80 81 82 82 84 89 92 93 96 104 108 100 107 107 101 103 103 106
70 71 64 59 55 53 54 53 39 20 16 29 42 53 62 69 71 72 73 75 77 79 79 79 81 83 82 85 82 84 86 85 84 88 92 96 96 98 110 113 108 106 111 105 108
71 71 70 66 58 53 51 51 51 47 30 15 24 36 47 56 63 69 73 74 75 76 78 80 82 82 82 82 85 86 87 87 88 89 87 93 92 98 105 108 109 112 113 110 108
66 68 71 69 66 57 51 48 48 48 47 40 21 17 29 40 50 58 64 70 73 75 77 78 79 81 82 84 84 84 86 90 94 88 92 91 91 97 93 99 105 114 115 112 115
64 64 66 69 66 65 56 49 46 45 46 46 43 30 16 22 35 46 55 60 66 70 72 74 76 79 80 82 82 88 84 87 88 91 94 93 94 96 90 98 100 104 108 113 115
64 63 64 65 66 65 65 54 46 43 42 43 44 42 36 22 18 29 42 51 59 61 64 68 70 73 77 79 79 81 86 88 88 92 86 94 92 95 95 97 98 101 104 110 115
63 63 62 63 64 63 64 65 52 44 41 41 41 42 41 38 31 18 24 36 48 57 59 61 66 69 69 72 77 80 83 86 91 90 86 90 92 94 96 98 101 100 101 104 107
64 62 62 61 63 64 62 64 61 48 44 41 41 41 42 42 40 37 28 21 33 46 56 59 63 60 66 69 72 76 79 82 87 89 89 93 92 95 98 96 98 100 101 101 102
62 60 62 61 62 65 63 64 64 58 46 46 44 43 42 44 45 43 41 35 23 32 45 55 64 58 63 63 66 70 74 75 79 84 89 92 92 95 98 100 101 101 102 101 99
59 61 62 61 62 64 64 65 64 64 58 50 48 46 46 46 47 49 49 49 39 26 32 46 56 59 66 64 62 63 66 67 74 76 82 87 92 97 99 100 102 102 102 102 102
58 58 61 63 64 63 66 65 66 63 64 56 54 50 49 52 52 54 56 58 52 39 28 37 45 55 64 67 65 63 63 64 67 73 74 76 86 88 98 100 101 100 102 100 99
55 56 60 61 64 64 67 67 64 67 64 67 59 57 53 54 55 59 62 64 64 51 35 31 38 48 57 64 66 67 67 64 66 68 65 76 75 80 88 90 97 99 99 100 100
54 56 57 58 63 63 66 70 67 65 65 68 67 61 58 58 61 61 67 69 71 57 38 31 34 45 50 56 64 66 69 70 69 68 66 77 68 75 80 82 88 93 95 96 99
53 54 56 58 62 63 65 68 69 68 68 69 68 65 62 58 62 67 70 74 75 54 38 32 33 40 45 52 59 65 69 71 72 71 70 69 67 72 74 82 84 88 89 94 95
51 54 53 56 61 61 66 67 69 71 71 71 70 70 66 66 66 69 75 79 73 50 38 35 30 38 43 47 54 58 65 71 72 73 74 71 72 73 82 81 84 85 86 88 92
49 53 53 55 60 61 66 67 70 73 72 72 72 71 69 67 67 72 78 85 66 49 43 40 33 38 36 44 51 55 59 64 71 72 75 74 76 81 82 84 81 86 88 90 91
46 49 51 55 57 63 64 67 70 75 72 73 74 73 71 68 68 73 81 87 60 51 43 38 36 35 36 38 45 51 55 60 63 68 73 76 74 81 85 84 84 87 87 91 90
46 47 50 55 55 61 63 68 68 75 73 73 75 75 75 70 68 75 81 81 57 51 41 37 34 32 34 34 40 48 52 55 57 58 60 68 68 80 83 86 87 87 87 89 89
48 46 51 55 56 60 62 66 67 77 75 76 76 77 77 74 71 74 81 75 53 48 39 32 31 29 30 33 37 40 41 43 47 50 56 55 55 67 76 78 79 80 84 85 85
51 47 49 52 54 59 62 63 69 76 76 74 78 79 77 73 71 76 83 74 52 49 37 30 26 22 24 30 29 26 29 36 40 45 42 50 44 56 61 66 70 71 70 70 75
50 46 49 51 52 55 63 62 69 73 74 75 79 80 81 76 72 76 82 72 52 47 37 29 24 18 19 21 18 19 24 28 26 32 33 38 37 54 61 61 59 59 59 59 63
50 47 49 50 51 55 60 61 70 71 73 78 80 83 83 78 73 77 83 74 52 47 36 27 20 14 14 12 15 20 23 22 23 25 31 35 41 50 53 54 50 49 47 49 49

GFSSW_250_spd_060.txt.gz
Wind_Speed
57 59 60 46 20 22 40 59 74 75 75 75 73 70 71 74 77 80 81 81 81 82 83 84 88 91 95 95 97 101 104 102 104 107 103 95 97 93 90 92 88 85 81 83 69
63 60 60 60 45 18 18 37 56 71 74 74 74 74 72 71 72 74 79 80 82 83 82 82 84 84 86 89 93 97 95 93 100 102 103 104 100 100 98 94 90 91 84 83 83
69 64 60 59 59 46 19 14 33 51 68 73 74 73 74 73 71 69 72 75 78 80 82 83 83 83 83 85 87 89 89 91 95 100 102 104 104 102 104 98 91 95 95 90 87
70 70 66 60 57 56 48 25 11 27 46 63 71 73 73 74 71 76 72 72 74 76 78 81 83 82 83 83 86 86 85 89 92 96 98 98 103 105 105 97 94 101 93 85 84
70 68 69 67 58 53 52 49 32 13 19 40 58 68 72 73 70 77 74 76 76 76 76 77 79 82 83 85 86 83 84 87 89 92 96 100 99 102 102 99 99 100 93 91 89
71 68 68 69 65 55 49 47 46 38 19 15 30 52 63 69 71 73 76 76 78 79 79 79 80 78 79 83 85 85 85 86 87 88 92 95 96 104 98 104 104 101 99 100 100
68 70 69 66 66 63 53 44 41 42 40 29 13 22 43 56 66 74 74 77 78 78 80 82 82 82 83 81 81 82 82 85 86 90 90 95 93 90 98 106 105 109 102 108 103
62 66 70 68 67 64 61 52 43 39 38 38 35 22 14 32 50 63 72 76 78 79 81 80 83 84 86 86 84 84 85 83 84 90 91 96 85 89 97 102 102 103 103 108 106
61 63 68 68 69 66 63 59 49 41 37 35 35 35 31 14 21 40 54 67 75 80 80 81 84 84 85 86 87 88 87 88 90 91 91 91 82 91 97 97 95 94 100 107 112
57 60 63 66 66 66 64 61 57 48 42 37 33 32 33 32 25 14 27 43 58 69 76 81 82 83 85 87 86 89 89 92 91 95 93 89 85 90 94 93 91 97 97 101 104
56 55 60 61 63 65 66 60 59 56 50 44 36 33 30 29 30 28 22 17 33 47 62 71 78 83 86 86 86 89 90 87 88 95 94 90 89 93 96 93 91 95 96 99 100
55 54 55 58 61 62 64 66 59 57 54 51 46 38 33 31 29 29 27 27 22 22 40 54 66 76 80 84 85 85 89 91 93 95 95 89 88 94 95 96 95 97 96 97 98
51 55 54 56 58 60 63 64 64 61 57 57 52 45 39 34 33 31 30 32 32 29 26 33 52 65 71 75 81 85 88 89 91 94 93 89 86 92 98 99 100 98 98 100 98
47 52 52 54 54 59 59 64 64 65 60 59 57 56 46 41 36 35 35 36 39 41 41 30 36 51 60 71 77 77 81 86 87 89 87 91 88 91 96 97 97 100 102 103 102
44 48 51 53 54 56 57 62 61 64 66 60 58 59 57 47 42 40 40 41 45 48 50 44 30 40 46 64 73 75 78 79 79 81 85 85 91 86 94 97 99 100 100 101 103
44 43 47 51 51 53 57 60 60 64 66 63 62 62 58 54 49 45 43 47 50 55 58 50 35 36 43 54 69 74 75 75 76 78 81 77 86 82 89 99 99 98 98 97 101
45 44 43 50 52 53 55 60 62 65 64 67 65 64 62 58 56 49 46 49 53 60 64 51 35 35 41 47 59 68 73 76 79 77 71 74 83 78 87 91 94 92 94 100 101
46 46 44 46 51 51 55 58 62 62 63 70 67 69 71 64 63 59 57 59 62 68 66 48 33 35 34 41 52 60 67 74 79 81 76 76 76 76 82 85 88 85 88 97 101
48 47 45 43 48 52 55 58 61 61 62 69 69 68 72 70 68 63 57 57 64 69 72 47 34 36 34 39 46 53 62 69 77 78 79 75 75 79 72 76 78 82 88 91 96
48 49 47 44 44 50 54 57 60 59 64 69 66 71 74 75 72 69 66 65 65 76 72 48 32 39 37 36 37 47 59 66 70 72 78 75 77 77 79 78 80 82 84 86 90
52 50 48 46 45 48 51 55 58 61 60 68 69 73 75 75 76 72 65 64 69 77 63 38 39 37 36 34 42 42 52 59 67 68 73 76 77 81 79 82 80 82 86 82 86
56 54 51 49 47 47 50 56 58 60 61 65 72 73 76 76 79 77 69 68 72 77 58 48 38 32 33 35 39 46 44 55 58 61 67 71 73 78 79 81 84 85 88 82 85
58 57 56 53 49 44 50 52 56 59 62 66 73 73 75 77 78 83 72 71 74 74 52 46 41 31 30 32 38 41 45 47 50 56 57 65 61 78 80 84 86 85 89 90 84
57 56 54 54 52 48 51 49 57 57 63 65 73 75 77 80 81 84 77 72 78 76 54 48 39 30 28 31 35 35 42 44 45 50 57 54 59 72 75 75 82 86 89 92 77
52 53 55 52 53 49 50 50 55 58 62 65 71 75 79 82 83 85 80 75 77 76 54 49 36 27 25 27 27 29 29 36 35 38 45 53 49 62 67 74 76 79 80 73 68
49 50 54 48 51 49 50 48 53 58 62 67 72 75 80 83 83 85 79 75 79 74 56 47 35 26 23 22 21 23 25 27 26 33 41 45 42 60 64 63 64 68 66 66 62
47 49 50 50 48 48 52 49 53 59 61 67 72 76 81 82 82 84 78 74 79 75 56 47 35 28 23 23 20 24 26 25 28 33 35 37 46 52 56 58 57 56 59 56 50

GFSSW_250_spd_063.txt.gz
Wind_Speed
73 70 69 60 57 50 22 14 33 54 72 80 79 79 77 75 77 83 84 86 86 87 92 100 108 117 119 119 115 115 110 105 106 101 94 98 100 97 93 89 90 88 85 81 79
73 75 72 70 59 56 48 21 12 31 49 69 77 78 77 76 73 73 79 83 85 86 86 89 95 99 106 110 118 116 112 111 111 113 113 103 104 103 104 98 96 97 85 94 84
72 73 75 72 69 56 53 47 23 11 27 46 66 76 76 76 73 74 72 76 80 82 84 85 87 90 92 94 98 105 105 110 109 112 115 115 107 110 112 105 104 102 98 101 96
67 70 73 73 71 66 53 49 45 26 11 24 43 62 73 74 72 77 74 72 72 77 80 82 84 85 87 89 93 91 92 97 98 104 107 114 112 108 116 109 105 107 106 103 93
62 67 69 72 72 69 63 51 46 43 32 14 20 38 57 69 73 77 75 75 74 72 75 78 80 83 86 88 89 88 88 89 89 93 96 102 102 105 107 108 112 110 103 104 99
60 63 66 65 70 70 66 62 51 45 40 36 22 14 32 50 69 76 76 76 76 76 74 75 77 80 79 85 87 90 89 88 88 88 89 92 95 99 97 106 111 113 114 106 102
56 59 62 63 65 67 68 65 61 50 43 37 35 28 14 24 46 62 74 76 77 77 79 79 77 76 80 83 86 88 86 88 86 89 90 95 94 94 98 106 105 108 106 112 99
52 57 57 60 61 63 65 65 61 61 52 42 35 32 30 19 13 37 52 68 75 76 79 79 81 81 81 81 83 84 86 88 89 93 93 102 88 91 96 104 100 99 104 110 106
46 51 55 56 58 60 61 62 63 60 56 55 44 35 28 27 24 11 20 40 57 68 75 78 80 83 85 86 86 84 83 85 87 94 95 103 87 93 99 99 97 98 98 97 102
44 45 50 52 55 57 57 60 59 62 57 56 54 44 32 24 22 21 16 11 23 40 58 69 75 81 83 87 86 91 90 91 90 92 97 100 89 96 98 97 94 98 96 92 94
43 42 43 47 52 53 54 55 58 57 61 58 56 50 44 31 22 19 17 15 14 13 22 38 54 70 79 87 88 91 93 94 95 94 100 96 91 93 92 95 95 96 94 93 96
43 43 42 42 48 51 51 53 55 56 55 60 57 56 51 47 34 22 19 17 16 15 18 19 20 45 61 75 82 91 93 92 92 96 104 101 98 94 90 93 95 98 96 98 99
44 44 43 43 43 48 50 50 53 55 54 57 57 56 55 54 51 39 25 21 21 22 22 26 28 32 40 58 71 81 85 93 96 101 106 99 98 94 90 95 101 101 97 96 96
43 43 44 43 40 43 47 47 52 54 53 53 59 56 60 60 58 55 42 30 26 28 29 34 38 37 40 49 58 67 79 87 93 100 102 99 97 89 91 96 101 101 101 99 100
43 43 44 45 41 39 44 48 52 52 51 54 54 59 58 60 59 57 60 45 34 33 35 42 48 45 36 48 54 56 72 81 86 91 93 92 99 88 97 98 99 100 102 101 102
43 44 43 43 44 40 40 44 48 50 53 51 53 57 65 63 65 62 62 59 45 41 41 45 54 49 36 40 46 56 61 70 76 82 84 80 95 89 95 98 101 101 100 101 100
46 43 44 44 44 43 43 42 45 49 52 51 54 55 61 63 64 65 63 62 54 43 40 49 59 54 29 29 36 46 58 61 63 73 71 85 96 77 88 94 97 100 97 96 99
47 46 46 45 44 45 47 43 45 49 49 54 56 60 63 69 70 72 73 71 77 66 59 61 64 54 34 32 35 44 49 58 61 67 72 81 84 79 84 85 86 92 92 89 91
47 51 47 46 47 46 46 45 45 48 49 54 57 61 64 70 71 74 76 72 78 74 68 67 69 50 41 38 37 42 44 51 57 60 64 73 79 83 82 84 85 88 87 88 90
50 50 48 48 47 47 46 46 45 46 48 53 55 62 65 69 73 78 81 76 75 74 67 69 68 51 44 42 41 46 47 50 52 51 60 64 74 78 83 84 85 83 84 84 85
49 48 46 48 47 47 47 48 45 46 47 51 54 61 66 67 74 74 78 80 79 77 65 70 69 42 41 46 47 41 40 48 53 51 50 54 64 75 80 83 85 85 86 79 82
49 46 46 43 43 44 46 47 46 45 50 49 53 60 66 68 75 73 79 78 79 81 69 71 64 42 43 41 41 37 38 45 48 50 49 51 53 69 72 81 83 85 85 83 83
46 48 47 42 42 42 43 45 45 45 50 49 54 59 63 68 70 75 82 81 83 82 72 74 59 43 43 39 34 34 35 41 45 49 45 47 50 63 65 72 78 83 85 86 90
42 48 47 46 45 45 44 45 46 45 47 49 53 59 62 66 73 76 80 83 84 83 74 78 64 49 40 37 29 27 30 36 37 39 44 43 46 59 62 65 75 78 81 84 84
41 45 47 48 47 45 44 44 46 45 47 50 54 56 59 68 71 77 80 85 86 85 75 79 62 49 39 32 24 22 26 28 30 38 38 45 42 51 60 62 65 74 76 77 74
48 43 48 45 46 48 46 42 47 48 50 51 51 57 62 66 71 75 79 84 85 83 78 81 62 51 43 30 21 20 21 24 27 33 32 33 38 52 53 56 63 65 69 72 69
48 45 44 44 45 46 47 44 46 52 54 51 54 60 63 67 73 73 80 84 85 82 77 80 61 50 42 31 20 15 16 17 22 30 33 37 41 46 49 53 57 60 60 60 62

GFSSW_250_spd_069.txt.gz
Wind_Speed
45 44 48 53 53 57 61 58 49 36 14 20 44 68 85 87 93 96 99 112 118 120 123 119 124 115 112 110 101 101 94 91 92 94 94 100 95 94 93 91 87 85 87 86 88
45 45 47 51 52 55 59 62 58 47 35 11 21 50 72 84 85 89 94 96 105 115 121 123 125 131 120 114 112 110 102 102 100 100 96 105 101 99 100 97 91 89 91 91 87
42 45 45 47 50 53 54 58 63 57 44 35 11 22 52 72 82 83 86 91 93 99 108 123 125 125 122 124 122 123 109 108 114 106 109 107 106 112 103 93 106 94 93 94 93
41 41 44 44 45 49 52 54 58 60 57 41 31 13 20 50 72 80 81 81 85 90 95 100 106 113 119 117 119 119 122 115 124 112 115 115 118 111 111 101 105 94 97 96 93
39 41 41 42 42 42 47 49 51 53 57 55 40 27 17 12 42 67 78 81 82 84 87 92 95 97 99 108 117 109 114 116 116 123 116 121 116 125 121 110 110 106 102 99 98
37 38 40 40 40 39 41 44 45 47 49 53 52 43 25 14 3 33 62 78 81 82 82 83 85 88 92 94 99 106 110 115 112 116 119 117 103 112 110 115 116 115 118 114 104
35 35 37 38 37 37 36 38 40 40 44 44 48 50 49 33 15 6 17 47 70 83 84 85 84 84 85 90 93 95 96 98 98 104 108 111 111 108 107 114 117 117 115 120 115
34 35 34 34 34 34 34 33 34 35 37 40 40 43 47 47 42 25 9 5 28 55 73 85 85 85 86 87 86 86 87 89 93 98 100 106 97 102 108 112 118 124 120 118 123
36 34 34 33 31 32 31 31 31 31 33 34 38 39 41 43 45 43 33 19 10 10 34 57 75 86 86 87 88 88 86 85 88 97 103 105 95 99 107 111 113 112 109 111 114
36 36 34 32 30 29 29 28 29 29 30 31 30 35 39 40 41 42 40 36 28 18 15 16 37 61 80 88 89 90 87 87 86 92 97 98 93 99 107 112 109 107 103 101 97
37 35 34 33 29 29 28 26 27 26 27 29 29 29 31 36 39 38 40 40 37 35 25 22 22 21 35 58 77 89 89 89 93 96 101 94 90 94 102 107 105 106 105 105 101
38 36 34 34 32 28 28 29 26 25 26 25 27 28 29 31 34 38 39 40 40 40 37 32 23 24 29 30 37 54 71 80 94 99 102 103 96 95 100 104 101 101 104 105 104
38 38 34 33 31 31 28 29 28 26 25 24 25 25 27 30 31 34 40 39 39 40 41 40 37 29 28 36 38 40 44 54 67 82 94 104 106 102 103 105 103 102 104 106 106
39 35 38 32 32 30 30 29 27 27 26 23 25 23 25 26 28 31 35 39 40 42 42 42 43 41 38 31 39 42 49 52 57 69 76 94 107 108 108 113 110 106 106 105 105
40 37 35 35 33 32 32 28 26 27 27 25 26 24 24 27 26 30 33 37 41 42 43 45 47 47 48 42 34 38 48 52 59 71 81 85 97 86 106 114 112 111 112 110 108
42 41 37 36 36 34 32 31 28 27 27 27 28 28 25 26 28 28 32 36 38 42 43 52 50 52 56 54 48 41 44 52 59 68 78 75 87 76 88 99 111 116 119 117 115
47 41 42 41 37 35 34 32 30 29 27 28 30 30 31 30 31 31 32 35 39 41 44 52 54 59 59 61 61 54 50 56 54 60 64 67 72 64 78 87 94 109 116 114 115
54 47 41 45 41 39 35 35 33 30 30 28 30 30 32 34 34 35 34 38 41 44 43 49 51 60 61 65 62 58 59 63 45 47 49 57 54 53 69 81 86 90 94 103 111
59 55 43 45 47 43 40 38 35 31 32 32 33 34 32 32 34 34 36 38 42 47 47 49 54 59 64 71 70 57 65 59 47 40 42 42 44 45 54 63 76 80 82 88 99
61 57 49 44 48 50 44 42 38 36 33 34 36 37 38 37 35 36 41 43 47 50 53 53 57 63 69 74 78 64 63 51 45 42 42 38 48 49 56 59 62 69 76 78 87
61 60 54 44 45 49 51 47 42 38 34 35 36 37 38 40 41 41 42 46 51 53 57 61 65 69 76 80 78 68 64 50 44 43 43 34 44 52 60 60 63 65 68 74 77
63 61 60 45 44 47 52 51 46 40 34 36 37 38 38 41 43 45 46 49 55 54 61 65 67 71 80 86 75 72 60 49 46 43 44 35 35 51 58 58 58 61 63 67 76
63 62 58 50 43 46 52 52 49 45 40 36 38 39 40 43 45 47 49 51 54 55 63 65 70 72 81 90 74 71 53 46 45 40 39 38 36 49 48 54 56 56 59 60 69
63 64 57 49 40 43 50 54 51 51 48 42 38 41 42 42 44 47 50 53 54 58 65 68 73 76 84 86 77 65 47 41 37 34 34 34 40 37 36 46 53 55 54 57 62
56 60 55 50 40 37 46 54 54 54 50 47 41 42 43 43 45 47 50 53 54 59 64 70 75 82 88 79 76 55 44 36 32 27 26 28 29 34 34 37 44 44 47 51 54
56 55 57 51 44 40 36 49 55 55 54 47 42 43 44 43 48 49 51 52 56 61 65 70 75 86 87 77 63 45 34 29 27 26 23 22 25 28 27 29 32 35 40 44 49
57 56 55 53 44 40 37 39 51 54 53 51 47 46 45 45 46 48 50 53 57 61 66 71 79 86 79 68 49 34 27 20 18 15 16 14 15 16 20 20 24 27 32 36 40

GFSSW_250_spd_072.txt.gz
Wind_Speed
30 32 34 34 33 39 44 47 53 59 48 39 19 19 38 62 77 89 94 100 106 116 128 120 119 106 106 105 103 97 95 85 81 90 89 96 93 98 94 92 88 81 81 79 74
31 31 33 35 36 36 40 44 50 58 59 46 35 14 20 42 65 75 90 91 100 100 118 124 123 120 114 107 105 98 97 96 96 94 99 101 100 98 99 96 90 88 87 84 78
30 31 32 33 35 35 36 40 44 50 56 58 43 30 9 25 48 63 77 86 88 97 99 113 123 128 119 120 104 112 98 100 99 99 104 103 97 97 100 96 99 101 94 90 88
31 30 31 32 33 34 35 35 38 43 47 52 58 41 26 6 28 49 64 76 81 86 92 97 112 118 119 124 125 112 110 101 108 105 112 112 104 103 104 102 103 101 101 96 96
32 33 31 30 32 31 33 33 33 35 40 44 47 52 42 25 6 27 50 65 75 77 84 88 94 109 113 116 116 114 121 114 110 114 116 124 114 113 103 107 109 108 105 98 95
33 32 33 33 31 30 30 30 30 30 32 35 39 41 45 45 22 7 22 46 65 74 76 81 87 90 96 107 115 116 116 121 124 123 116 122 120 119 114 115 113 110 111 105 99
34 33 32 32 31 29 30 28 28 27 28 29 30 33 37 40 41 28 11 13 38 60 73 78 79 86 90 92 97 102 106 111 114 121 127 120 121 121 124 128 121 117 112 109 110
35 34 32 32 30 28 27 28 27 26 25 25 25 26 28 32 33 36 36 19 7 24 47 67 76 81 82 88 92 93 94 96 102 108 112 117 108 111 119 120 127 123 116 122 122
36 35 33 31 29 27 26 26 27 25 25 22 21 22 21 24 27 29 32 31 25 10 6 25 50 70 82 84 86 89 92 95 98 104 107 109 102 103 110 110 111 114 111 115 122
35 36 36 33 30 28 25 25 25 25 22 23 19 19 18 18 20 24 26 28 26 24 22 12 9 24 48 69 82 88 89 91 92 97 99 98 95 98 103 104 102 105 107 107 112
43 37 36 35 33 29 27 25 23 21 24 20 21 16 17 18 15 15 19 24 24 24 23 22 20 15 13 25 43 67 86 92 96 97 97 97 93 97 101 102 104 103 106 106 102
45 43 36 37 36 34 30 29 24 24 22 22 20 19 15 16 18 15 16 16 20 25 23 23 26 23 22 18 20 32 42 63 81 96 98 101 96 96 99 98 99 105 106 108 109
47 43 43 37 38 38 36 33 29 28 24 23 22 23 20 18 17 17 17 17 18 20 21 22 23 27 26 26 27 25 28 43 48 61 79 91 96 97 101 105 104 102 106 106 105
47 48 44 43 38 40 38 38 33 33 28 27 26 25 23 23 22 18 19 18 19 22 24 23 22 25 31 31 32 35 34 29 39 56 57 63 65 82 97 106 107 109 110 110 112
48 48 45 44 42 40 42 41 39 35 31 30 31 28 25 25 26 26 23 22 21 24 28 26 28 30 32 33 36 37 40 45 37 41 55 62 70 62 77 86 94 108 118 119 117
48 48 49 47 46 40 41 44 43 40 34 33 34 33 28 29 28 29 31 29 26 24 28 32 32 33 36 39 42 44 47 51 53 49 45 60 79 59 71 87 96 105 118 123 121
48 47 49 52 49 47 41 44 46 44 39 35 37 35 31 31 30 31 31 31 31 29 32 35 39 39 40 45 50 53 57 60 61 60 45 55 71 70 84 98 107 110 112 112 114
49 50 51 52 50 52 45 42 47 45 45 41 39 36 33 34 35 34 33 32 32 33 35 37 45 47 50 52 52 57 61 68 70 60 50 61 62 59 86 91 99 97 100 104 101
50 52 50 52 53 53 50 45 43 46 47 45 42 40 35 35 36 37 37 36 34 35 37 38 43 45 50 54 56 59 65 73 81 67 58 56 58 54 69 69 74 80 85 92 91
52 52 52 53 56 54 52 45 42 45 48 48 47 43 41 38 35 37 40 38 38 38 42 43 44 49 54 58 61 64 69 78 80 71 61 51 49 55 58 58 65 71 74 77 79
52 51 54 55 54 56 54 45 40 44 47 49 50 46 42 41 38 37 38 40 41 43 46 48 50 53 58 63 66 70 78 85 78 77 62 49 44 50 57 59 62 64 66 64 68
52 52 54 52 53 52 53 46 39 42 46 49 51 50 46 43 42 41 39 43 44 45 47 51 53 58 62 69 71 76 84 83 80 73 62 48 38 43 52 56 59 58 60 62 64
51 50 53 50 52 49 49 47 40 38 46 50 51 51 51 48 46 42 42 43 45 47 50 53 56 60 65 71 74 83 85 82 76 62 51 41 37 40 35 46 56 57 58 58 63
55 52 51 50 49 48 48 47 45 38 41 51 53 52 50 47 47 44 43 43 46 49 50 52 58 63 70 74 76 87 84 73 56 47 40 34 32 35 26 38 44 47 50 49 55
46 47 49 47 47 49 47 46 45 40 41 45 54 53 49 49 49 46 43 43 44 49 50 54 59 67 73 80 84 86 73 54 42 36 32 28 23 25 22 25 26 28 36 43 46
45 45 47 47 48 49 48 45 42 39 38 42 45 53 52 50 50 46 44 44 45 48 51 55 61 67 82 82 85 66 45 38 34 27 23 21 18 15 16 16 17 20 26 32 37
42 42 46 45 48 49 47 43 43 39 37 38 40 48 53 52 47 45 46 46 47 50 55 57 62 72 79 81 57 39 29 25 22 16 14 13 12 10 10 9 8 11 15 20 26

GFSSW_250_spd_075.txt.gz
Wind_Speed
23 25 25 23 26 27 29 30 33 39 46 51 59 50 29 20 35 58 79 92 97 100 106 120 116 109 108 113 103 107 102 103 99 91 94 99 99 95 91 88 84 84 87 85 79
28 26 27 27 26 28 30 31 32 37 42 47 52 57 44 21 18 39 65 79 88 94 100 108 123 115 106 118 106 102 97 96 97 100 99 103 102 96 95 94 92 90 90 90 85
30 29 26 28 29 28 30 32 32 33 38 42 47 51 52 39 16 19 46 68 74 87 91 101 107 117 117 116 112 110 104 97 97 99 101 100 96 96 92 95 96 97 95 93 91
31 30 29 28 30 28 27 30 33 31 33 36 40 44 48 43 34 11 22 53 65 73 84 88 101 105 116 118 119 117 113 112 106 99 105 105 104 103 90 93 94 97 98 96 97
32 30 31 31 29 31 26 26 29 31 30 31 33 36 41 42 37 26 7 26 51 60 69 79 84 92 101 110 118 118 121 109 115 111 103 109 109 104 104 99 101 95 92 91 95
31 31 34 34 32 28 28 25 25 28 29 27 27 29 32 35 39 33 19 7 28 45 57 65 75 82 86 95 104 115 116 120 117 118 110 112 109 107 107 106 107 102 97 94 94
32 33 34 34 35 32 27 25 23 24 26 25 23 22 22 26 29 33 30 15 5 24 40 52 66 73 78 82 92 99 100 107 120 125 113 117 113 107 112 114 117 107 106 103 99
39 39 36 36 37 35 32 26 23 23 23 23 22 18 18 17 20 21 24 24 16 7 14 36 54 66 73 76 80 89 96 95 105 110 117 118 111 119 118 111 107 115 112 111 110
43 43 40 40 40 36 34 30 24 24 22 23 21 20 15 15 13 14 15 15 17 16 10 8 28 49 64 73 74 77 83 87 88 97 108 117 110 113 120 117 117 112 111 116 118
44 45 43 43 40 39 35 33 28 26 26 23 23 21 19 13 11 9 9 9 8 11 9 10 4 11 30 52 68 75 78 79 85 92 93 96 100 99 108 110 113 119 121 118 114
44 44 45 43 43 40 38 36 33 29 32 25 25 22 19 20 14 12 10 7 7 6 6 4 4 6 3 10 26 47 68 80 83 87 90 94 96 99 99 103 112 109 113 114 115
45 42 43 43 40 39 38 37 38 35 30 29 30 26 24 22 22 16 14 13 10 9 7 7 7 6 5 6 8 10 20 39 59 80 88 92 92 96 100 97 101 100 101 105 106
44 42 42 42 41 39 39 39 36 40 37 32 33 31 27 26 25 24 19 16 15 15 12 10 10 12 12 11 11 13 14 17 23 37 52 62 78 92 97 100 101 102 107 110 108
43 44 42 41 41 40 39 40 38 37 42 38 36 34 32 29 27 28 24 22 19 20 18 14 15 15 17 16 18 20 18 22 23 26 33 46 38 55 72 88 97 104 110 111 111
42 44 42 43 43 41 40 42 39 40 38 42 40 40 39 33 30 31 29 27 24 27 27 21 20 19 19 19 19 22 23 25 28 31 30 38 38 37 51 65 79 93 104 112 113
44 42 43 45 43 43 46 42 40 41 37 38 42 43 44 39 34 32 33 31 27 30 31 26 27 27 27 26 26 27 31 33 36 37 36 43 39 35 51 62 77 87 92 96 104
45 44 44 47 44 45 46 44 43 43 40 36 42 44 45 45 39 36 34 34 31 31 32 32 32 31 30 32 32 34 37 39 39 45 42 47 47 53 53 68 76 83 94 98 99
46 46 46 47 48 48 48 45 45 45 43 40 38 47 47 47 45 41 38 36 34 33 35 36 37 36 37 39 39 42 48 51 46 53 51 58 58 65 64 62 72 83 92 101 106
44 44 46 47 48 49 49 48 47 45 44 41 39 42 49 48 47 48 43 37 36 37 36 37 40 43 44 44 47 47 55 59 62 64 64 64 69 73 72 68 76 86 98 102 104
51 50 48 48 47 48 48 48 45 46 44 39 35 40 47 48 49 49 45 42 38 37 39 40 39 43 44 48 51 52 58 64 69 74 75 75 76 83 68 67 71 76 82 90 94
49 47 49 49 48 48 46 47 46 45 43 38 34 38 45 49 50 50 49 46 43 41 40 41 42 45 48 51 53 57 63 70 74 84 86 82 79 62 55 55 60 64 65 69 71
51 54 55 57 55 48 46 46 46 46 42 39 34 36 44 49 51 51 51 49 45 46 45 44 42 47 51 54 57 62 71 77 84 86 88 65 59 50 42 44 46 52 54 57 61
54 57 60 56 47 42 42 41 45 45 45 42 34 35 40 48 49 51 50 48 48 47 47 45 45 47 53 56 62 68 77 84 86 78 64 47 44 35 34 37 34 41 44 48 52
57 59 54 43 38 37 39 39 42 44 43 43 39 32 36 45 51 51 47 45 45 44 45 45 47 49 53 58 63 73 80 82 65 50 41 33 33 28 25 26 26 29 32 34 36
56 55 43 35 36 38 39 39 42 42 43 41 38 32 33 38 48 52 47 45 43 44 44 44 47 50 53 58 66 73 73 51 37 30 25 25 26 26 25 22 19 21 24 26 30
53 48 40 34 33 36 36 39 38 38 41 43 39 32 31 34 40 47 48 45 41 42 42 43 45 50 53 58 65 63 39 29 21 20 21 20 20 22 23 21 20 17 16 18 23
50 46 41 38 36 38 39 42 41 40 44 41 41 33 29 31 31 41 47 43 41 42 40 40 44 48 53 58 55 29 22 16 24 30 31 30 33 35 35 35 34 31 28 24 21